TimeAEST,TemperatureF,Dew PointF,Humidity,Sea Level PressureIn,VisibilityMPH,Wind Direction,Wind SpeedMPH,Gust SpeedMPH,PrecipitationIn,Events,Conditions,WindDirDegrees,DateUTC
12:00 AM,71,61,63,30.11,,SE,16.1,,,,,130,2012-10-05 14:00:00
12:00 AM,71.6,60.8,69,30.09,-9999.0,SE,16.1,-,N/A,,Unknown,130,2012-10-05 14:00:00
12:30 AM,71.6,59.0,64,30.09,-9999.0,ESE,13.8,-,N/A,,Unknown,120,2012-10-05 14:30:00
1:00 AM,71.6,60.8,69,30.09,-9999.0,SE,13.8,-,N/A,,Unknown,130,2012-10-05 15:00:00
2:00 AM,69.8,60.8,73,30.06,-9999.0,SE,13.8,-,N/A,,Unknown,130,2012-10-05 16:00:00
2:30 AM,71.6,60.8,69,30.06,-9999.0,ESE,16.1,-,N/A,,Unknown,110,2012-10-05 16:30:00
3:00 AM,71,61,62,30.07,,ESE,16.1,,,,,110,2012-10-05 17:00:00
3:00 AM,71.6,60.8,69,30.06,-9999.0,ESE,16.1,-,N/A,,Unknown,110,2012-10-05 17:00:00
3:30 AM,71.6,59.0,64,30.06,-9999.0,ESE,16.1,-,N/A,,Unknown,120,2012-10-05 17:30:00
4:00 AM,71.6,59.0,64,30.06,-9999.0,ESE,17.3,-,N/A,,Unknown,110,2012-10-05 18:00:00
4:30 AM,71.6,59.0,64,30.06,-9999.0,ESE,17.3,-,N/A,,Unknown,120,2012-10-05 18:30:00
5:00 AM,71.6,59.0,64,30.06,-9999.0,SE,17.3,-,N/A,,Unknown,130,2012-10-05 19:00:00
5:30 AM,71.6,59.0,64,30.06,-9999.0,SE,17.3,-,N/A,,Unknown,130,2012-10-05 19:30:00
6:00 AM,71,59,56,30.09,,SE,17.3,,,,,130,2012-10-05 20:00:00
6:00 AM,71.6,59.0,64,30.06,-9999.0,SE,17.3,-,N/A,,Unknown,130,2012-10-05 20:00:00
6:30 AM,71.6,59.0,64,30.09,-9999.0,SE,17.3,-,N/A,,Unknown,130,2012-10-05 20:30:00
7:00 AM,73.4,57.2,57,30.09,-9999.0,ESE,20.7,-,N/A,,Unknown,110,2012-10-05 21:00:00
7:30 AM,75.2,59.0,57,30.09,-9999.0,ESE,17.3,-,N/A,,Unknown,110,2012-10-05 21:30:00
8:00 AM,75.2,59.0,57,30.12,-9999.0,ESE,17.3,-,N/A,,Unknown,120,2012-10-05 22:00:00
8:30 AM,77.0,60.8,57,30.12,-9999.0,ESE,18.4,-,N/A,,Unknown,120,2012-10-05 22:30:00
9:00 AM,76,60,47,30.13,,ESE,18.4,,,,,120,2012-10-05 23:00:00
9:00 AM,77.0,59.0,54,30.12,-9999.0,ESE,18.4,-,N/A,,Unknown,120,2012-10-05 23:00:00
9:30 AM,77.0,59.0,54,30.12,-9999.0,ESE,17.3,-,N/A,,Unknown,120,2012-10-05 23:30:00
10:00 AM,77.0,57.2,50,30.12,-9999.0,ESE,17.3,-,N/A,,Unknown,110,2012-10-06 00:00:00
10:30 AM,77.0,59.0,54,30.09,-9999.0,ESE,15.0,-,N/A,,Unknown,120,2012-10-06 00:30:00
11:00 AM,78.8,57.2,47,30.09,-9999.0,East,17.3,-,N/A,,Unknown,100,2012-10-06 01:00:00
11:30 AM,77.0,55.4,47,30.06,-9999.0,East,17.3,-,N/A,,Unknown,100,2012-10-06 01:30:00
12:00 PM,77,57,40,30.07,,East,17.3,,,,,100,2012-10-06 02:00:00
12:00 PM,77.0,57.2,50,30.06,-9999.0,East,17.3,-,N/A,,Unknown,100,2012-10-06 02:00:00
12:30 PM,77.0,57.2,50,30.06,-9999.0,East,16.1,-,N/A,,Unknown,100,2012-10-06 02:30:00
1:00 PM,77.0,55.4,47,30.04,-9999.0,East,16.1,-,N/A,,Unknown,100,2012-10-06 03:00:00
1:30 PM,77.0,55.4,47,30.04,-9999.0,East,16.1,-,N/A,,Unknown,100,2012-10-06 03:30:00
2:00 PM,77.0,57.2,50,30.04,-9999.0,East,15.0,-,N/A,,Unknown,100,2012-10-06 04:00:00
2:30 PM,77.0,57.2,50,30.01,-9999.0,East,13.8,-,N/A,,Unknown,100,2012-10-06 04:30:00
3:00 PM,75,57,44,30.00,,East,15.0,,,,,100,2012-10-06 05:00:00
3:00 PM,75.2,57.2,53,30.01,-9999.0,East,15.0,-,N/A,,Unknown,100,2012-10-06 05:00:00
3:30 PM,75.2,59.0,57,30.01,-9999.0,ESE,15.0,-,N/A,,Unknown,110,2012-10-06 05:30:00
4:00 PM,75.2,57.2,53,29.98,-9999.0,ESE,15.0,-,N/A,,Unknown,110,2012-10-06 06:00:00
4:30 PM,73.4,59.0,61,29.98,-9999.0,ESE,16.1,-,N/A,,Unknown,110,2012-10-06 06:30:00
5:00 PM,73.4,57.2,57,29.98,-9999.0,East,16.1,-,N/A,,Unknown,100,2012-10-06 07:00:00
5:30 PM,73.4,57.2,57,30.01,-9999.0,East,16.1,-,N/A,,Unknown,100,2012-10-06 07:30:00
6:00 PM,73,54,41,30.01,,East,15.0,,,,,100,2012-10-06 08:00:00
6:00 PM,73.4,53.6,50,30.01,-9999.0,East,15.0,-,N/A,,Unknown,100,2012-10-06 08:00:00
6:30 PM,71.6,55.4,57,30.01,-9999.0,ESE,15.0,-,N/A,,Unknown,110,2012-10-06 08:30:00
7:00 PM,71.6,57.2,60,30.01,-9999.0,ESE,15.0,-,N/A,,Unknown,110,2012-10-06 09:00:00
7:30 PM,71.6,57.2,60,30.04,-9999.0,East,15.0,-,N/A,,Unknown,100,2012-10-06 09:30:00
8:00 PM,71.6,57.2,60,30.04,-9999.0,East,15.0,-,N/A,,Unknown,100,2012-10-06 10:00:00
8:30 PM,71.6,57.2,60,30.04,-9999.0,East,16.1,-,N/A,,Unknown,90,2012-10-06 10:30:00
9:00 PM,72,56,46,30.06,,East,11.5,,,,,80,2012-10-06 11:00:00
9:00 PM,71.6,55.4,57,30.06,-9999.0,East,11.5,-,N/A,,Unknown,80,2012-10-06 11:00:00
9:30 PM,71.6,57.2,60,30.06,-9999.0,ENE,11.5,-,N/A,,Unknown,70,2012-10-06 11:30:00
10:00 PM,69.8,55.4,60,30.06,-9999.0,NE,8.1,-,N/A,,Unknown,40,2012-10-06 12:00:00
10:30 PM,69.8,59.0,68,30.06,-9999.0,NE,10.4,-,N/A,,Unknown,50,2012-10-06 12:30:00
11:00 PM,69.8,57.2,64,30.06,-9999.0,NE,9.2,-,N/A,,Unknown,50,2012-10-06 13:00:00
11:30 PM,69.8,57.2,64,30.04,-9999.0,NE,8.1,-,N/A,,Unknown,50,2012-10-06 13:30:00